Kabul, Afghanistan

1:49 PM +0430 on February 18, 2018 (GMT +0430)
Kabul

Weather History for OAKB - January, 2014

Change the Weather History Date:

Monday, January 27, 2014

  Actual Average Record
Temperature  
Mean Temperature 42 °F -  
Max Temperature 55 °F 42 °F - ()
Min Temperature 28 °F 22 °F - ()
Degree Days  
Heating Degree Days 24    
Moisture  
Dew Point 25 °F    
Average Humidity 60    
Maximum Humidity 87    
Minimum Humidity 26    
Precipitation  
Precipitation 0.00 in 0.08 in - ()
Sea Level Pressure  
Sea Level Pressure 30.30 in    
Wind  
Wind Speed 4 mph ()    
Max Wind Speed 7 mph    
Max Gust Speed -    
Visibility 2.7 miles    
Events      
T = Trace of Precipitation, MM = Missing Value Source: Averaged Metar Reports

Daily Weather History Graph

Daily Weather History Graph

Search for Another Location

Airport or City:

Trip Planner

Search our weather history database for the weather conditions in past years. The results will help you decide how hot, cold, wet, or windy it might be!

Date:

Astronomy

Jan. 27, 2014 Rise Set
Actual Time 6:54 AM +0430 5:17 PM +0430
Civil Twilight 6:28 AM +0430 5:44 PM +0430
Nautical Twilight 5:57 AM +0430 6:14 PM +0430
Astronomical Twilight 5:27 AM +0430 6:44 PM +0430
Moon 3:06 AM +0430 (1/27) 1:39 PM +0430 (1/27)
Length of Visible Light 11h 16m
Length of Day
10h 22m
Waning Crescent, 18% of the Moon is Illuminated
Jan 27
Waning Crescent
Jan 31
New
Feb 6
First Quarter
Feb 15
Full
Feb 22
Last Quarter

Hourly Weather History & Observations

Time (+0430) Temp. Windchill Dew Point Humidity Pressure Visibility Wind Dir Wind Speed Gust Speed Precip Events Conditions
12:20 AM 32.0 °F 26.4 °F 28.4 °F 87% 30.27 in 1.0 mi South 5.8 mph - N/A   Smoke
1:20 AM 32.0 °F 27.5 °F 28.4 °F 87% 30.27 in 1.2 mi NE 4.6 mph - N/A   Smoke
2:20 AM 32.0 °F 28.7 °F 28.4 °F 87% 30.27 in 1.2 mi Variable 3.5 mph - N/A   Smoke
3:20 AM 30.2 °F - 26.6 °F 86% 30.27 in 1.2 mi Variable 2.3 mph - N/A   Smoke
4:20 AM 28.4 °F 22.2 °F 24.8 °F 86% 30.27 in 1.9 mi NNW 5.8 mph - N/A   Smoke
5:20 AM 30.2 °F 25.4 °F 24.8 °F 80% 30.27 in 3.1 mi WNW 4.6 mph - N/A   Mist
6:20 AM 30.2 °F - 26.6 °F 86% 30.30 in 2.5 mi WNW 2.3 mph - N/A   Mist
6:55 AM 30.2 °F 24.3 °F 24.8 °F 80% 30.30 in 4.3 mi NNW 5.8 mph - N/A   Unknown
7:20 AM 30.2 °F 25.4 °F 24.8 °F 80% 30.33 in 4.3 mi WNW 4.6 mph - N/A   Unknown
7:45 AM 32.0 °F 26.4 °F 26.6 °F 80% 30.33 in 2.5 mi WNW 5.8 mph - N/A   Mist
8:20 AM 35.6 °F 31.7 °F 28.4 °F 75% 30.36 in 2.5 mi NW 4.6 mph - N/A   Mist
9:20 AM 42.8 °F 39.3 °F 26.6 °F 53% 30.36 in 3.1 mi WNW 5.8 mph - N/A   Mist
10:20 AM 46.4 °F 45.2 °F 26.6 °F 46% 30.36 in 3.1 mi NW 3.5 mph - N/A   Haze
11:20 AM 51.8 °F - 24.8 °F 35% 30.36 in 3.7 mi West 2.3 mph - N/A   Unknown
12:20 PM 53.6 °F - 24.8 °F 33% 30.33 in 5.0 mi Variable 3.5 mph - N/A   Unknown
1:20 PM 51.8 °F - 24.8 °F 35% 30.30 in - NW 5.8 mph - N/A   Clear
2:20 PM 53.6 °F - 21.2 °F 28% 30.27 in - Variable 3.5 mph - N/A   Clear
3:20 PM 55.4 °F - 21.2 °F 26% 30.27 in - ESE 4.6 mph - N/A   Clear
4:20 PM 51.8 °F - 21.2 °F 30% 30.24 in - ENE 5.8 mph - N/A   Clear
5:20 PM 48.2 °F - 21.2 °F 34% 30.24 in - North 5.8 mph - N/A   Clear
6:20 PM 46.4 °F - 21.2 °F 37% 30.27 in 5.0 mi Calm Calm - N/A   Unknown
7:20 PM 42.8 °F - 24.8 °F 49% 30.27 in 4.3 mi WSW 2.3 mph - N/A   Unknown
7:45 PM 41.0 °F - 24.8 °F 53% 30.30 in 2.5 mi Variable 2.3 mph - N/A   Haze
8:20 PM 39.2 °F 37.0 °F 24.8 °F 56% 30.30 in 1.9 mi ESE 3.5 mph - N/A   Smoke
9:20 PM 39.2 °F 37.0 °F 26.6 °F 61% 30.30 in 1.9 mi South 3.5 mph - N/A   Smoke
10:20 PM 37.4 °F - 26.6 °F 65% 30.30 in 1.9 mi NE 2.3 mph - N/A   Smoke
11:20 PM 35.6 °F 29.9 °F 28.4 °F 75% 30.30 in 1.6 mi South 6.9 mph - N/A   Smoke